TimePST,TemperatureF,Dew PointF,Humidity,Sea Level PressureIn,VisibilityMPH,Wind Direction,Wind SpeedMPH,Gust SpeedMPH,PrecipitationIn,Events,Conditions,WindDirDegrees,DateUTC
12:53 AM,48.9,45.0,86,29.96,9.0,Calm,Calm,-,N/A,,Clear,0,2011-11-13 08:53:00
1:53 AM,48.9,46.0,90,29.96,7.0,ESE,3.5,-,N/A,,Mostly Cloudy,110,2011-11-13 09:53:00
2:53 AM,50.0,46.0,86,29.96,7.0,ESE,4.6,-,N/A,,Overcast,110,2011-11-13 10:53:00
3:53 AM,50.0,46.0,86,29.94,6.0,ESE,3.5,-,N/A,,Mostly Cloudy,120,2011-11-13 11:53:00
4:53 AM,50.0,46.0,86,29.95,6.0,Calm,Calm,-,N/A,,Overcast,0,2011-11-13 12:53:00
5:53 AM,46.9,46.0,97,29.96,4.0,Calm,Calm,-,N/A,,Clear,0,2011-11-13 13:53:00
6:53 AM,46.9,45.0,93,29.97,4.0,Calm,Calm,-,N/A,,Clear,0,2011-11-13 14:53:00
7:53 AM,48.9,46.9,93,29.99,8.0,Calm,Calm,-,N/A,,Clear,0,2011-11-13 15:53:00
8:53 AM,53.1,48.0,83,29.99,8.0,NW,3.5,-,N/A,,Clear,310,2011-11-13 16:53:00
9:53 AM,57.0,48.9,74,29.99,10.0,WNW,6.9,-,N/A,,Clear,300,2011-11-13 17:53:00
10:53 AM,61.0,48.9,64,30.00,10.0,NNW,8.1,-,N/A,,Clear,340,2011-11-13 18:53:00
11:53 AM,63.0,48.9,60,29.99,10.0,North,9.2,-,N/A,,Clear,350,2011-11-13 19:53:00
12:53 PM,64.9,48.0,54,29.97,10.0,NNW,10.4,-,N/A,,Clear,330,2011-11-13 20:53:00
1:53 PM,66.0,46.9,50,29.95,10.0,NNW,10.4,-,N/A,,Clear,340,2011-11-13 21:53:00
2:53 PM,68.0,45.0,43,29.94,10.0,NNW,9.2,-,N/A,,Clear,330,2011-11-13 22:53:00
3:53 PM,64.9,44.1,47,29.93,9.0,NW,5.8,-,N/A,,Clear,310,2011-11-13 23:53:00
4:53 PM,60.1,46.0,60,29.92,10.0,Calm,Calm,-,N/A,,Clear,0,2011-11-14 00:53:00
5:53 PM,54.0,46.9,77,29.94,10.0,West,4.6,-,N/A,,Clear,270,2011-11-14 01:53:00
6:53 PM,55.0,46.9,74,29.96,10.0,Calm,Calm,-,N/A,,Clear,0,2011-11-14 02:53:00
7:53 PM,53.1,46.9,80,29.96,10.0,Calm,Calm,-,N/A,,Clear,0,2011-11-14 03:53:00
8:53 PM,53.1,48.0,83,29.96,10.0,SSE,3.5,-,N/A,,Clear,160,2011-11-14 04:53:00
9:53 PM,55.0,48.0,77,29.97,10.0,South,3.5,-,N/A,,Clear,170,2011-11-14 05:53:00
10:53 PM,54.0,48.0,80,29.99,10.0,SSE,3.5,-,N/A,,Clear,150,2011-11-14 06:53:00
11:53 PM,54.0,48.0,80,29.97,10.0,SSE,3.5,-,N/A,,Mostly Cloudy,150,2011-11-14 07:53:00